SCP
-0 -0 -0 -0 -0 0 0 0 0 0 0 0 -0 -0 -0 -0 -0 -0 -0 -0 -0 0 0 0 -0 0 0 0 0 0 -0 -0 0 0 0 -0 0 0 -0 -0 -0 0 0 0 0 0 -0
-0 -0 -0 -0 -0 -0 -0 0 0 0 0 0 -0 -0 -0 -0 -0 -0 -0 -0 -0 0 0 -0 -0 -0 0 0 0 -0 -0 -0 0 0 0 0 0 -0 -0 -0 -0 -0 0 0 -0 0 -0
-0 -0 -0 -0 -0 -0 -0 0 0 0 0 -0 -0 -0 -0 -0 -0 -0 -0 -0 -0 0 0 -0 -0 0 0 -0 -0 -0 -0 -0 0 0 0 0 -0 0 -0 0 -0 -0 0 0 0 -0 0
-0 -0 -0 -0 -0 -0 -0 -0 0 0 -0 -0 -0 -0 -0 -0 -0 -0 -0 -0 0 0 -0 -0 -0 0 -0 0 -0 -0 0 -0 0 -0 -0 -0 -0 -0 -0 -0 0 0 -0 -0 0 -0 -0
-0 -0 -0 -0 -0 -0 -0 -0 -0 -0 -0 -0 -0 -0 -0 -0 -0 -0 -0 -0 0 -0 -0 -0 0 0 -0 0 -0 -0 -0 0 0 -0 -0 -0 -0 -0 -0 -0 0 0 -0 -0 0 0 0
-0 -0 -0 -0 -0 -0 -0 -0 -0 -0 0 -0 -0 -0 -0 -0 -0 -0 -0 0 0 0 0 0 0 0 0 -0 0 -0 -0 -0 0 0 0 0 -0 -0 -0 0 0 0 -0 0 -0 -0 0
-0 -0 -0 -0 -0 -0 -0 -0 -0 -0 0 -0 -0 -0 -0 -0 -0 -0 0 0 0 0 0 0 0 0 0 -0 0 0 -0 -0 -0 -0 0 0 0 0 0 0 0 0 -0 0 -0 -0 0
0 -0 -0 -0 -0 -0 -0 -0 -0 -0 -0 -0 -0 -0 -0 -0 -0 -0 0 0 0 0 0 -0 -0 -0 -0 0 0 -0 -0 -0 -0 -0 -0 0 0 -0 0 0 0 0 0 0 0 0 0
0 0 -0 -0 -0 -0 -0 -0 -0 -0 -0 -0 -0 -0 -0 -0 -0 0 0 0 0 0 0 0 -0 -0 0 0 0 -0 -0 -0 0 0 0 0 -0 0 0 0 0 0 0 0 0 0 0
0 0 0 -0 -0 -0 -0 -0 -0 -0 -0 -0 -0 -0 -0 -0 0 0 0 0 0 0 0 0 0 -0 0 0 0 0 -0 0 -0 0 0 0 0 0 0 0 0 0 0 0 0 0 0
0 0 0 0 0 0 -0 -0 -0 -0 -0 -0 -0 -0 0 0 0 0 0 0 0 0 0 0 -0 -0 0 0 0 -0 0 -0 -0 0 -0 -0 0 -0 0 0 0 0 0 0 0 0 0
0 0 0 0 0 0 0 -0 -0 -0 -0 -0 -0 0 0 -0 0 0 0 0 0 0 0 -0 -0 0 0 -0 -0 0 0 -0 -0 -0 -0 -0 -0 -0 0 0 0 0 0 0 0 0 -0
0 0 0 0 0 0 0 0 -0 -0 -0 -0 -0 -0 0 0 0 0 0 0 0 0 0 0 0 0 0 0 -0 0 0 0 0 0 -0 -0 -0 0 0 0 0 0 -0 0 0 0 -0
0 0 0 0 0 0 0 0 0 -0 -0 -0 -0 -0 -0 0 0 0 0 0 0 0 0 0 0 0 0 0 -0 0 0 0 -0 0 0 0 0 0 0 0 0 0 0 0 0 0 0
0 0 0 0 0 0 0 0 0 -0 -0 -0 0 0 0 0 0 0 0 0 0 0 0 0 0 0 -0 -0 0 0 0 0 0 0 0 0 0 0 0 0 0 0 0 0 0 0 0
0 0 0 0 0 0 0 0 0 -0 -0 -0 0 0 0 0 0 0 0 0 0 0 0 0 0 0 0 0 0 0 0 0 0 0 0 0 0 0 0 0 0 0 0 0 0 0 0
0 0 0 0 0 0 0 0 0 0 -0 0 0 0 0 0 0 0 0 0 -0 0 0 0 0 0 0 0 0 0 0 0 0 0 0 0 0 0 0 0 0 0 0 0 0 0 0
0 0 0 0 0 0 0 0 0 0 0 -0 0 0 0 0 0 0 0 0 0 0 0 0 0 0 -0 0 0 0 0 0 0 0 0 0 0 0 0 0 0 0 0 0 0 0 0
0 0 0 0 0 0 0 0 0 0 0 0 0 0 0 0 0 0 0 0 0 0 0 0 0 0 0 -0 0 0 0 0 0 0 0 0 0 0 0 0 0 0 0 0 0 0 0
0 0 0 0 0 0 0 0 0 0 0 0 0 0 0 0 0 0 0 0 0 0 0 0 0 0 0 0 0 0 0 0 0 0 0 0 0 0 0 0 0 0 0 0 0 0 0
0 0 0 0 0 0 0 0 0 0 0 0 0 0 0 0 0 0 0 0 0 0 0 0 0 0 0 0 0 0 0 0 0 0 0 0 0 0 0 0 0 0 0 0 0 0 0
0 0 0 0 0 0 0 0 0 0 0 0 0 0 0 0 0 0 0 0 0 0 0 0 0 0 0 0 0 0 0 0 0 0 0 0 0 0 0 0 0 0 0 0 0 0 0
0 0 0 0 0 0 0 0 0 0 0 0 0 0 0 0 0 0 0 0 0 0 0 0 0 0 0 0 0 0 0 0 0 0 0 0 0 0 0 0 0 0 0 0 0 0 0
0 0 0 0 0 0 0 0 0 0 0 0 0 0 0 0 0 0 0 0 0 0 0 0 0 0 0 0 0 0 0 0 0 0 0 0 0 0 0 0 0 0 0 0 0 0 0
0 0 0 0 0 0 0 0 0 0 0 0 0 0 0 0 0 0 0 0 0 0 0 0 0 0 0 0 0 0 0 0 0 0 0 0 0 0 0 0 0 0 0 0 0 0 0
0 0 0 0 0 0 0 0 0 0 0 0 0 0 0 0 0 0 0 0 0 0 0 0 0 0 0 0 0 0 0 0 0 0 0 0 0 0 0 0 0 0 0 0 0 0 0
0 0 0 0 0 0 0 0 0 0 0 0 0 0 0 0 0 0 0 0 0 0 0 0 0 0 0 0 0 0 0 0 0 0 0 0 0 0 0 0 0 0 0 0 0 0 0
0 0 0 0 0 0 0 0 0 0 0 0 0 0 0 0 0 0 0 0 0 0 0 0 0 0 0 0 0 0 0 0 0 0 0 0 0 0 0 0 0 0 0 0 0 0 0
0 0 0 0 0 0 0 0 0 0 0 0 0 0 0 0 0 0 0 0 0 0 0 0 0 0 0 0 0 0 0 0 0 0 0 0 0 0 0 0 0 0 0 0 0 0 0
Wind_Speed_500mb
31 31 31 32 30 32 32 33 34 34 36 37 39 40 42 43 45 39 31 30 19 17 14 10 7 10 6 4 5 4 5 13 17 21 27 23 15 9 7 10 23 9 5 5 7 11 14
32 32 32 33 31 32 33 34 35 36 37 37 38 40 41 43 43 40 34 32 14 12 13 7 4 9 6 4 2 7 2 10 19 27 35 24 6 12 26 13 6 22 22 10 3 10 13
33 32 33 34 33 33 34 36 37 38 38 39 39 39 40 41 41 39 33 25 8 8 10 5 4 10 10 7 2 5 3 9 17 27 33 22 15 27 24 19 24 32 12 16 17 15 9
33 34 34 35 36 36 36 38 39 41 41 41 40 39 39 39 39 34 27 21 10 6 6 3 4 4 8 2 9 8 23 26 20 8 5 7 17 24 13 19 22 10 7 3 17 16 10
34 35 36 37 39 39 39 40 41 43 43 43 42 40 37 36 36 28 23 25 11 6 4 2 6 3 5 11 25 10 13 14 13 7 7 12 22 13 13 6 11 8 10 12 12 22 14
36 37 38 39 41 42 42 42 43 44 44 44 43 41 36 33 33 22 22 17 6 5 5 6 10 9 15 21 34 18 11 15 20 18 26 21 4 4 6 9 7 10 8 1 12 11 12
38 38 39 40 41 42 43 43 43 44 45 44 43 41 36 29 26 14 20 8 9 4 12 17 5 15 6 16 19 22 13 13 19 10 11 5 8 11 21 18 18 13 4 5 5 5 10
37 38 38 40 40 41 43 43 43 43 44 44 42 40 36 26 16 8 12 11 16 14 18 29 42 46 30 13 20 31 20 15 4 11 4 10 13 30 16 17 14 8 9 12 6 3 6
36 38 38 39 40 41 42 43 43 43 43 43 41 39 36 23 9 4 7 14 19 20 7 25 36 39 27 34 17 32 43 28 6 6 11 13 21 10 18 6 9 8 13 6 2 8 9
36 37 38 39 39 41 42 43 43 43 42 41 39 38 35 22 5 7 9 8 7 16 8 13 13 17 25 25 10 38 46 21 7 19 12 14 20 12 1 5 13 8 6 10 10 9 4
36 36 38 39 39 41 43 43 44 44 43 41 36 36 29 26 18 9 6 4 5 3 4 6 12 13 26 24 4 16 50 35 14 17 7 14 4 7 11 6 9 7 3 5 4 8 8
36 37 37 39 42 43 45 46 46 45 44 42 35 33 32 26 22 9 6 4 10 10 9 7 18 15 16 22 10 36 42 25 7 8 6 14 8 11 11 6 8 1 10 17 13 8 7
35 37 39 40 42 45 46 48 48 47 46 45 36 29 36 27 11 5 6 11 9 6 8 9 13 13 14 14 7 13 14 10 8 5 8 14 8 6 8 8 15 15 14 8 11 10 10
36 38 40 43 44 46 48 50 50 49 48 49 38 33 30 25 14 17 10 8 6 7 9 8 10 9 18 16 14 20 15 11 11 9 3 5 16 7 5 11 12 6 14 10 3 2 12
36 39 41 43 45 47 50 51 52 50 48 52 40 31 29 9 21 21 7 5 13 11 7 13 10 13 8 12 12 14 18 19 18 20 15 10 5 2 12 9 14 6 4 11 11 3 6
38 39 40 43 44 46 49 52 54 51 46 51 42 31 17 34 29 21 8 12 9 7 12 9 7 5 1 6 4 6 19 17 16 22 16 15 7 3 5 17 4 12 8 7 8 4 5
39 39 40 41 44 45 49 51 54 54 45 40 33 18 14 41 30 8 7 13 10 26 28 3 3 3 3 5 2 8 10 6 10 7 20 16 9 9 10 8 13 7 3 10 10 9 9
41 43 42 41 42 45 47 49 51 57 47 33 16 5 30 33 12 5 6 9 8 18 45 14 4 2 6 6 5 6 3 4 11 15 9 2 11 7 12 5 7 12 16 12 10 10 3
43 44 43 41 40 42 44 46 45 47 55 54 37 16 16 11 5 7 12 11 15 21 17 11 4 6 6 1 1 2 5 8 13 10 10 4 4 6 14 13 14 11 7 7 8 7 10
41 41 42 41 38 38 40 41 39 37 39 41 14 8 12 8 6 6 7 12 10 23 16 9 7 8 12 10 2 6 3 3 12 11 13 14 7 12 13 11 6 3 8 5 9 6 5
40 42 43 39 34 36 37 37 36 31 31 26 6 5 13 7 10 10 4 7 11 8 17 6 4 9 10 5 12 9 14 5 7 18 8 11 9 9 8 7 4 5 6 1 3 9 10
41 37 39 37 34 35 36 34 34 29 22 10 11 11 19 18 26 12 6 5 6 10 11 14 3 6 17 12 9 2 7 6 10 4 5 7 6 5 1 6 11 7 10 5 5 6 9
36 34 36 35 31 31 34 35 32 26 20 4 10 9 7 14 14 8 7 14 18 20 9 19 5 14 18 6 4 5 7 9 2 10 4 6 9 7 6 5 7 10 6 5 9 10 13
33 33 33 29 29 28 30 33 31 23 16 16 14 11 9 8 6 8 19 22 27 26 2 14 32 13 7 13 6 5 9 8 12 13 12 8 9 7 9 6 5 15 8 9 16 20 24
30 30 27 25 25 25 27 29 30 22 10 9 10 6 7 6 15 14 33 15 29 33 14 11 25 11 12 19 9 11 11 11 7 6 10 11 9 2 9 9 8 8 10 1 4 10 9
28 26 24 23 23 23 23 23 27 22 11 2 6 6 3 5 6 20 15 21 6 10 15 14 20 22 5 7 8 6 5 3 7 12 12 13 9 9 8 10 17 17 17 11 5 8 3
26 25 26 24 22 21 20 20 22 23 14 2 12 6 4 8 14 19 8 11 15 11 3 8 26 23 17 5 5 6 6 3 4 4 7 8 6 10 8 10 12 12 16 8 11 18 37
27 25 23 23 23 21 18 17 18 21 18 3 14 6 4 11 39 33 28 14 17 8 4 18 8 14 12 10 5 6 6 8 2 6 4 6 3 7 2 3 15 17 8 16 13 25 34
27 29 28 26 22 22 18 15 15 17 18 8 19 4 7 17 19 26 35 32 36 25 14 8 0 6 8 7 6 2 4 4 6 5 5 2 7 5 8 9 21 18 23 24 43 39 33
Wind_Direction_500mb
358 358 356 358 1 357 355 352 352 351 350 351 351 352 352 353 355 352 342 339 331 332 329 306 258 231 233 262 279 357 108 155 174 180 177 191 244 270 249 269 314 209 332 15 75 105 97
353 355 354 351 357 353 351 348 348 346 346 346 347 348 348 348 352 350 341 334 327 342 345 334 225 191 186 281 3 297 244 166 173 171 169 197 218 283 287 287 335 320 314 312 346 203 143
349 350 349 348 351 350 348 345 344 343 342 342 343 344 345 345 347 348 344 348 339 352 1 17 141 172 216 269 126 53 164 119 155 162 179 199 267 279 296 325 338 325 336 339 294 243 128
346 344 345 344 343 344 343 341 340 339 339 337 338 339 340 341 342 348 346 350 325 330 356 54 137 191 258 218 192 120 118 116 117 137 229 275 304 297 268 296 318 314 45 11 278 177 184
340 340 338 338 336 337 338 337 336 334 334 333 333 334 336 338 337 343 341 337 321 287 301 178 157 278 249 188 197 175 196 152 140 150 237 311 286 304 306 48 346 348 236 183 284 186 138
335 336 334 333 333 333 334 334 333 332 331 330 330 330 332 335 333 336 343 341 335 319 283 233 233 299 217 211 219 208 239 252 257 239 252 258 269 22 2 78 254 282 303 120 172 201 98
330 332 331 332 332 332 332 332 331 329 328 328 327 326 327 331 330 329 3 3 1 332 283 232 190 251 21 140 164 201 180 220 248 237 184 227 68 241 244 200 223 256 29 43 240 245 105
330 331 332 333 332 332 332 331 328 327 326 326 326 324 323 329 320 321 10 33 9 333 299 273 258 265 249 257 175 209 185 215 228 232 115 11 231 247 244 241 202 354 23 339 28 303 115
332 332 333 334 333 332 331 330 328 326 326 324 324 323 322 328 275 274 7 34 356 325 286 285 237 240 239 199 187 201 195 211 214 268 232 176 246 269 249 324 54 6 82 61 78 314 9
337 337 336 336 335 332 331 329 327 327 324 322 323 322 323 330 233 297 112 15 20 330 46 275 191 227 220 189 256 218 200 189 224 222 238 221 261 185 103 29 113 62 336 31 18 69 238
337 339 339 339 337 334 331 329 327 326 324 321 320 318 315 313 294 243 310 309 298 330 9 179 175 187 188 180 202 199 200 206 231 259 34 264 260 170 87 148 114 202 4 0 341 334 36
338 338 338 338 336 335 331 329 327 325 324 318 316 316 303 301 287 245 281 263 325 48 260 226 169 156 127 210 250 165 185 207 239 241 238 221 252 153 166 119 100 81 31 14 33 79 354
337 337 336 336 335 335 334 330 327 325 324 316 313 307 293 281 245 171 292 315 56 154 305 213 181 139 154 193 211 172 182 196 164 44 325 331 297 268 132 74 20 73 51 354 10 11 228
333 334 334 334 334 334 333 331 328 327 327 316 314 303 281 269 236 228 250 63 193 244 254 272 158 117 171 175 230 188 152 197 263 132 100 200 321 185 192 140 157 96 136 144 198 291 272
330 330 330 332 333 334 333 332 328 328 330 320 319 307 282 235 175 170 148 109 211 223 277 342 81 140 253 238 174 151 189 197 211 168 170 154 326 86 119 125 123 292 42 180 118 356 27
327 327 328 331 333 335 334 334 331 327 332 327 326 319 285 160 155 162 90 233 244 275 341 329 98 114 173 15 142 176 184 210 224 184 155 197 136 296 130 76 26 139 172 34 7 140 259
324 326 327 329 331 334 336 336 335 332 335 335 330 323 119 155 172 191 170 235 289 289 325 236 105 45 100 84 142 312 230 317 205 154 144 151 114 269 95 162 188 8 16 69 116 129 156
321 319 321 324 328 331 333 334 337 338 338 342 0 338 149 175 154 169 191 217 294 288 314 297 133 181 206 29 354 333 330 348 359 137 99 31 129 144 201 226 222 180 192 135 129 241 185
326 324 319 320 322 327 330 332 335 341 344 351 337 289 206 198 184 270 293 291 289 283 267 245 26 23 357 4 351 243 139 40 63 72 147 188 29 64 356 356 4 56 25 95 93 62 188
326 328 326 322 324 325 328 330 330 335 337 342 335 345 330 326 23 129 345 280 274 304 264 146 139 77 47 6 360 270 108 23 92 109 114 96 107 144 179 194 176 306 349 13 118 101 195
321 325 328 328 328 329 329 329 329 331 336 343 338 303 4 323 333 335 276 287 307 328 345 64 67 168 181 209 349 21 5 15 11 161 109 108 148 137 174 208 220 202 251 22 160 212 162
314 317 323 329 331 333 334 335 331 333 348 30 13 358 343 304 305 339 341 310 288 319 8 321 302 304 80 110 139 77 13 69 256 340 62 5 191 114 90 319 348 300 308 352 327 261 237
311 313 319 324 328 333 337 340 338 338 0 357 353 313 325 305 339 11 25 318 314 321 357 52 27 91 64 90 36 348 319 275 298 143 88 82 110 82 242 50 31 334 223 297 280 261 215
301 308 315 317 323 329 335 345 350 347 2 13 24 8 350 289 340 8 335 331 338 307 187 38 48 91 64 25 346 341 3 37 61 64 103 110 102 117 191 65 260 237 229 224 245 261 286
291 300 304 310 316 320 328 339 349 348 334 351 40 38 359 304 318 326 338 321 338 0 0 60 36 19 78 53 49 27 352 15 337 231 138 132 119 130 153 194 275 313 292 289 310 314 345
286 291 299 305 310 309 317 332 347 348 315 319 122 29 307 327 205 343 314 352 334 325 348 3 13 41 101 91 74 112 201 217 315 327 11 96 92 141 141 184 215 212 231 223 170 256 242
282 286 292 299 302 303 306 320 343 351 332 273 141 39 324 283 273 358 17 308 339 340 313 352 336 355 26 94 105 145 236 200 242 287 305 336 350 199 208 237 269 238 203 149 158 246 179
283 284 284 291 297 300 295 305 333 350 337 250 161 74 1 272 276 273 282 303 329 16 73 318 9 0 23 52 94 215 157 226 180 237 251 174 168 264 79 200 296 197 100 178 207 152 169
279 284 278 277 282 290 287 289 316 341 340 318 197 219 230 257 269 282 271 250 258 261 290 330 346 280 31 70 24 37 11 358 153 262 331 304 153 226 152 233 287 242 230 204 170 178 184
Wind_Speed_850mb
31 31 31 32 30 32 32 33 34 34 36 37 39 40 42 43 45 39 31 30 19 17 14 10 7 10 6 4 5 4 5 13 17 21 27 23 15 9 7 10 23 9 5 5 7 11 14
32 32 32 33 31 32 33 34 35 36 37 37 38 40 41 43 43 40 34 32 14 12 13 7 4 9 6 4 2 7 2 10 19 27 35 24 6 12 26 13 6 22 22 10 3 10 13
33 32 33 34 33 33 34 36 37 38 38 39 39 39 40 41 41 39 33 25 8 8 10 5 4 10 10 7 2 5 3 9 17 27 33 22 15 27 24 19 24 32 12 16 17 15 9
33 34 34 35 36 36 36 38 39 41 41 41 40 39 39 39 39 34 27 21 10 6 6 3 4 4 8 2 9 8 23 26 20 8 5 7 17 24 13 19 22 10 7 3 17 16 10
34 35 36 37 39 39 39 40 41 43 43 43 42 40 37 36 36 28 23 25 11 6 4 2 6 3 5 11 25 10 13 14 13 7 7 12 22 13 13 6 11 8 10 12 12 22 14
36 37 38 39 41 42 42 42 43 44 44 44 43 41 36 33 33 22 22 17 6 5 5 6 10 9 15 21 34 18 11 15 20 18 26 21 4 4 6 9 7 10 8 1 12 11 12
38 38 39 40 41 42 43 43 43 44 45 44 43 41 36 29 26 14 20 8 9 4 12 17 5 15 6 16 19 22 13 13 19 10 11 5 8 11 21 18 18 13 4 5 5 5 10
37 38 38 40 40 41 43 43 43 43 44 44 42 40 36 26 16 8 12 11 16 14 18 29 42 46 30 13 20 31 20 15 4 11 4 10 13 30 16 17 14 8 9 12 6 3 6
36 38 38 39 40 41 42 43 43 43 43 43 41 39 36 23 9 4 7 14 19 20 7 25 36 39 27 34 17 32 43 28 6 6 11 13 21 10 18 6 9 8 13 6 2 8 9
36 37 38 39 39 41 42 43 43 43 42 41 39 38 35 22 5 7 9 8 7 16 8 13 13 17 25 25 10 38 46 21 7 19 12 14 20 12 1 5 13 8 6 10 10 9 4
36 36 38 39 39 41 43 43 44 44 43 41 36 36 29 26 18 9 6 4 5 3 4 6 12 13 26 24 4 16 50 35 14 17 7 14 4 7 11 6 9 7 3 5 4 8 8
36 37 37 39 42 43 45 46 46 45 44 42 35 33 32 26 22 9 6 4 10 10 9 7 18 15 16 22 10 36 42 25 7 8 6 14 8 11 11 6 8 1 10 17 13 8 7
35 37 39 40 42 45 46 48 48 47 46 45 36 29 36 27 11 5 6 11 9 6 8 9 13 13 14 14 7 13 14 10 8 5 8 14 8 6 8 8 15 15 14 8 11 10 10
36 38 40 43 44 46 48 50 50 49 48 49 38 33 30 25 14 17 10 8 6 7 9 8 10 9 18 16 14 20 15 11 11 9 3 5 16 7 5 11 12 6 14 10 3 2 12
36 39 41 43 45 47 50 51 52 50 48 52 40 31 29 9 21 21 7 5 13 11 7 13 10 13 8 12 12 14 18 19 18 20 15 10 5 2 12 9 14 6 4 11 11 3 6
38 39 40 43 44 46 49 52 54 51 46 51 42 31 17 34 29 21 8 12 9 7 12 9 7 5 1 6 4 6 19 17 16 22 16 15 7 3 5 17 4 12 8 7 8 4 5
39 39 40 41 44 45 49 51 54 54 45 40 33 18 14 41 30 8 7 13 10 26 28 3 3 3 3 5 2 8 10 6 10 7 20 16 9 9 10 8 13 7 3 10 10 9 9
41 43 42 41 42 45 47 49 51 57 47 33 16 5 30 33 12 5 6 9 8 18 45 14 4 2 6 6 5 6 3 4 11 15 9 2 11 7 12 5 7 12 16 12 10 10 3
43 44 43 41 40 42 44 46 45 47 55 54 37 16 16 11 5 7 12 11 15 21 17 11 4 6 6 1 1 2 5 8 13 10 10 4 4 6 14 13 14 11 7 7 8 7 10
41 41 42 41 38 38 40 41 39 37 39 41 14 8 12 8 6 6 7 12 10 23 16 9 7 8 12 10 2 6 3 3 12 11 13 14 7 12 13 11 6 3 8 5 9 6 5
40 42 43 39 34 36 37 37 36 31 31 26 6 5 13 7 10 10 4 7 11 8 17 6 4 9 10 5 12 9 14 5 7 18 8 11 9 9 8 7 4 5 6 1 3 9 10
41 37 39 37 34 35 36 34 34 29 22 10 11 11 19 18 26 12 6 5 6 10 11 14 3 6 17 12 9 2 7 6 10 4 5 7 6 5 1 6 11 7 10 5 5 6 9
36 34 36 35 31 31 34 35 32 26 20 4 10 9 7 14 14 8 7 14 18 20 9 19 5 14 18 6 4 5 7 9 2 10 4 6 9 7 6 5 7 10 6 5 9 10 13
33 33 33 29 29 28 30 33 31 23 16 16 14 11 9 8 6 8 19 22 27 26 2 14 32 13 7 13 6 5 9 8 12 13 12 8 9 7 9 6 5 15 8 9 16 20 24
30 30 27 25 25 25 27 29 30 22 10 9 10 6 7 6 15 14 33 15 29 33 14 11 25 11 12 19 9 11 11 11 7 6 10 11 9 2 9 9 8 8 10 1 4 10 9
28 26 24 23 23 23 23 23 27 22 11 2 6 6 3 5 6 20 15 21 6 10 15 14 20 22 5 7 8 6 5 3 7 12 12 13 9 9 8 10 17 17 17 11 5 8 3
26 25 26 24 22 21 20 20 22 23 14 2 12 6 4 8 14 19 8 11 15 11 3 8 26 23 17 5 5 6 6 3 4 4 7 8 6 10 8 10 12 12 16 8 11 18 37
27 25 23 23 23 21 18 17 18 21 18 3 14 6 4 11 39 33 28 14 17 8 4 18 8 14 12 10 5 6 6 8 2 6 4 6 3 7 2 3 15 17 8 16 13 25 34
27 29 28 26 22 22 18 15 15 17 18 8 19 4 7 17 19 26 35 32 36 25 14 8 0 6 8 7 6 2 4 4 6 5 5 2 7 5 8 9 21 18 23 24 43 39 33
Wind_Direction_850mb
358 358 356 358 1 357 355 352 352 351 350 351 351 352 352 353 355 352 342 339 331 332 329 306 258 231 233 262 279 357 108 155 174 180 177 191 244 270 249 269 314 209 332 15 75 105 97
353 355 354 351 357 353 351 348 348 346 346 346 347 348 348 348 352 350 341 334 327 342 345 334 225 191 186 281 3 297 244 166 173 171 169 197 218 283 287 287 335 320 314 312 346 203 143
349 350 349 348 351 350 348 345 344 343 342 342 343 344 345 345 347 348 344 348 339 352 1 17 141 172 216 269 126 53 164 119 155 162 179 199 267 279 296 325 338 325 336 339 294 243 128
346 344 345 344 343 344 343 341 340 339 339 337 338 339 340 341 342 348 346 350 325 330 356 54 137 191 258 218 192 120 118 116 117 137 229 275 304 297 268 296 318 314 45 11 278 177 184
340 340 338 338 336 337 338 337 336 334 334 333 333 334 336 338 337 343 341 337 321 287 301 178 157 278 249 188 197 175 196 152 140 150 237 311 286 304 306 48 346 348 236 183 284 186 138
335 336 334 333 333 333 334 334 333 332 331 330 330 330 332 335 333 336 343 341 335 319 283 233 233 299 217 211 219 208 239 252 257 239 252 258 269 22 2 78 254 282 303 120 172 201 98
330 332 331 332 332 332 332 332 331 329 328 328 327 326 327 331 330 329 3 3 1 332 283 232 190 251 21 140 164 201 180 220 248 237 184 227 68 241 244 200 223 256 29 43 240 245 105
330 331 332 333 332 332 332 331 328 327 326 326 326 324 323 329 320 321 10 33 9 333 299 273 258 265 249 257 175 209 185 215 228 232 115 11 231 247 244 241 202 354 23 339 28 303 115
332 332 333 334 333 332 331 330 328 326 326 324 324 323 322 328 275 274 7 34 356 325 286 285 237 240 239 199 187 201 195 211 214 268 232 176 246 269 249 324 54 6 82 61 78 314 9
337 337 336 336 335 332 331 329 327 327 324 322 323 322 323 330 233 297 112 15 20 330 46 275 191 227 220 189 256 218 200 189 224 222 238 221 261 185 103 29 113 62 336 31 18 69 238
337 339 339 339 337 334 331 329 327 326 324 321 320 318 315 313 294 243 310 309 298 330 9 179 175 187 188 180 202 199 200 206 231 259 34 264 260 170 87 148 114 202 4 0 341 334 36
338 338 338 338 336 335 331 329 327 325 324 318 316 316 303 301 287 245 281 263 325 48 260 226 169 156 127 210 250 165 185 207 239 241 238 221 252 153 166 119 100 81 31 14 33 79 354
337 337 336 336 335 335 334 330 327 325 324 316 313 307 293 281 245 171 292 315 56 154 305 213 181 139 154 193 211 172 182 196 164 44 325 331 297 268 132 74 20 73 51 354 10 11 228
333 334 334 334 334 334 333 331 328 327 327 316 314 303 281 269 236 228 250 63 193 244 254 272 158 117 171 175 230 188 152 197 263 132 100 200 321 185 192 140 157 96 136 144 198 291 272
330 330 330 332 333 334 333 332 328 328 330 320 319 307 282 235 175 170 148 109 211 223 277 342 81 140 253 238 174 151 189 197 211 168 170 154 326 86 119 125 123 292 42 180 118 356 27
327 327 328 331 333 335 334 334 331 327 332 327 326 319 285 160 155 162 90 233 244 275 341 329 98 114 173 15 142 176 184 210 224 184 155 197 136 296 130 76 26 139 172 34 7 140 259
324 326 327 329 331 334 336 336 335 332 335 335 330 323 119 155 172 191 170 235 289 289 325 236 105 45 100 84 142 312 230 317 205 154 144 151 114 269 95 162 188 8 16 69 116 129 156
321 319 321 324 328 331 333 334 337 338 338 342 0 338 149 175 154 169 191 217 294 288 314 297 133 181 206 29 354 333 330 348 359 137 99 31 129 144 201 226 222 180 192 135 129 241 185
326 324 319 320 322 327 330 332 335 341 344 351 337 289 206 198 184 270 293 291 289 283 267 245 26 23 357 4 351 243 139 40 63 72 147 188 29 64 356 356 4 56 25 95 93 62 188
326 328 326 322 324 325 328 330 330 335 337 342 335 345 330 326 23 129 345 280 274 304 264 146 139 77 47 6 360 270 108 23 92 109 114 96 107 144 179 194 176 306 349 13 118 101 195
321 325 328 328 328 329 329 329 329 331 336 343 338 303 4 323 333 335 276 287 307 328 345 64 67 168 181 209 349 21 5 15 11 161 109 108 148 137 174 208 220 202 251 22 160 212 162
314 317 323 329 331 333 334 335 331 333 348 30 13 358 343 304 305 339 341 310 288 319 8 321 302 304 80 110 139 77 13 69 256 340 62 5 191 114 90 319 348 300 308 352 327 261 237
311 313 319 324 328 333 337 340 338 338 0 357 353 313 325 305 339 11 25 318 314 321 357 52 27 91 64 90 36 348 319 275 298 143 88 82 110 82 242 50 31 334 223 297 280 261 215
301 308 315 317 323 329 335 345 350 347 2 13 24 8 350 289 340 8 335 331 338 307 187 38 48 91 64 25 346 341 3 37 61 64 103 110 102 117 191 65 260 237 229 224 245 261 286
291 300 304 310 316 320 328 339 349 348 334 351 40 38 359 304 318 326 338 321 338 0 0 60 36 19 78 53 49 27 352 15 337 231 138 132 119 130 153 194 275 313 292 289 310 314 345
286 291 299 305 310 309 317 332 347 348 315 319 122 29 307 327 205 343 314 352 334 325 348 3 13 41 101 91 74 112 201 217 315 327 11 96 92 141 141 184 215 212 231 223 170 256 242
282 286 292 299 302 303 306 320 343 351 332 273 141 39 324 283 273 358 17 308 339 340 313 352 336 355 26 94 105 145 236 200 242 287 305 336 350 199 208 237 269 238 203 149 158 246 179
283 284 284 291 297 300 295 305 333 350 337 250 161 74 1 272 276 273 282 303 329 16 73 318 9 0 23 52 94 215 157 226 180 237 251 174 168 264 79 200 296 197 100 178 207 152 169
279 284 278 277 282 290 287 289 316 341 340 318 197 219 230 257 269 282 271 250 258 261 290 330 346 280 31 70 24 37 11 358 153 262 331 304 153 226 152 233 287 242 230 204 170 178 184